Showing default

MUSAT2, 59099

Orbit data source: Space-Track

MUSAT2, 59099 is a payload satellite owned by Muon Space (US) in SSO that was launched on Mon, 04 Mar 2024 UTC via an FALCON 9 launch vehicle from the Air Force Western Test Range (AFWTR). Payload-class satellites include a variety of spacecraft equipped with specific instruments for various scientific and technological missions. These include communications satellites like Starlink; space stations such as the ISS; scientific satellites like the Hubble; Earth observation satellites from companies like Planet Labs, Umbra, and HawkEye 360; GPS; miniature CubeSats for education and research; and military/defense satellites.

Loading next visibility...
Identifier
59099, 2024-043B
Orbit
SSO
Country
Flag of USUS
Related business
Manufacturer
Muon Space
Mission
Operational Commercial Imaging
Bus & Motor
MUON, Unknown motor
Mass
67 kg wet, 67 kg dry
Launch date (UTC)
2024-03-04 (2 years ago)
Launch vehicle
FALCON 9
Launch site
Air Force Western Test Range (AFWTR)
Object type
Payload
Rocket body
Debris
Shape & HBR
Box, 0.3 m
Radar Cross Section
0.195 m², Medium (>0.1 m² and < 1m²)

Expand to show TLE details & history
Last TLE update: 20 hours ago

TLE from 20 hours ago
0 MUSAT2
1 59099U 24043B   26174.95503330  .00005031  00000-0  32529-3 0  9996
2 59099  97.8605 313.7643 0006051 316.8432  43.2321 15.08664691126117
Epoch: 2026-06-23T22:55Z
TLE epoch observation values (Epoch: 2026-06-23T22:55:14.877Z)
Latitude
0.00002°
Longitude
57.83313°
Altitude
540.291 km
Speed
7.594 km/s
True Right ascension
20h 55m 03s
True Declination
0° 00' 00"
Sunlit
Object was in full shadow at epoch
Visualization orbit readout
Latitude
Unknown
Longitude
Unknown
Altitude
Unknown
Speed
Unknown
Apparent Right ascension
Unknown
Apparent Declination
Unknown
Sunlit
N/A
Visualization observer readout
Local Sidereal Time
06:19:23
Azimuth
Unknown
Elevation
Unknown
Doppler factor
Unknown
Orbital elements
Apogee altitude
541.465 km
Perigee altitude
533.096 km
Semi-major axis
6,915.417 km
Eccentricity
0.00061
Inclination
97.8605°
RAAN
313.7643°
Arg. of periapsis
316.8432°
True anomaly
43.27962°
Mean anomaly
43.2321°
Eccentric anomaly
43.25586°
Mean motion
3.77412 °/min
Orbital period
95.39 mins
BSTAR
0.00032529
Loading maneuver chart data...
Computing Atmospheric mass density...
Loading historical data...
Loading historical data...
Loading historical data...
Loading historical data...
Loading historical data...
Loading historical data...
Loading historical data...

Documentation

Showing up to 5 results
|